Time,TemperatureF,DewpointF,PressureIn,WindDirection,WindDirectionDegrees,WindSpeedMPH,WindSpeedGustMPH,Humidity,HourlyPrecipIn,Conditions,Clouds,dailyrainin,SoftwareType,DateUTC
2013-05-04 00:01:00,39.6,36.0,29.96,NE,40,0.0,0.0,87,0.00,,---,0.00,VWS V14.01,2013-05-04 06:01:00,
2013-05-04 00:06:00,39.4,35.8,29.96,NE,43,0.0,0.0,87,0.00,,---,0.00,VWS V14.01,2013-05-04 06:06:00,
2013-05-04 00:11:00,39.4,35.8,29.96,NE,43,0.0,0.0,87,0.00,,---,0.00,VWS V14.01,2013-05-04 06:11:00,
2013-05-04 00:16:00,39.4,35.8,29.96,ENE,57,0.0,0.0,87,0.00,,---,0.00,VWS V14.01,2013-05-04 06:16:00,
2013-05-04 00:21:00,39.4,35.8,29.96,NE,43,0.0,0.0,87,0.00,,---,0.00,VWS V14.01,2013-05-04 06:21:00,
2013-05-04 00:26:00,39.4,35.8,29.96,NE,43,0.0,0.0,87,0.00,,---,0.00,VWS V14.01,2013-05-04 06:26:00,
2013-05-04 00:31:00,39.4,35.8,29.96,NE,55,0.0,0.0,87,0.00,,---,0.00,VWS V14.01,2013-05-04 06:31:00,
2013-05-04 00:36:00,39.4,35.8,29.96,NE,55,0.0,0.0,87,0.00,,---,0.00,VWS V14.01,2013-05-04 06:36:00,
2013-05-04 00:41:00,39.4,35.8,29.96,ENE,62,0.0,0.0,87,0.00,,---,0.00,VWS V14.01,2013-05-04 06:41:00,
2013-05-04 00:46:00,39.4,35.8,29.96,ENE,65,2.7,2.7,87,0.00,,---,0.00,VWS V14.01,2013-05-04 06:46:00,
2013-05-04 00:51:00,39.4,35.8,29.96,NE,48,2.7,2.7,87,0.00,,---,0.00,VWS V14.01,2013-05-04 06:51:00,
2013-05-04 00:56:00,39.4,36.1,29.96,ENE,63,0.0,0.0,88,0.00,,---,0.00,VWS V14.01,2013-05-04 06:56:00,
2013-05-04 01:01:00,39.4,36.4,29.96,ENE,63,0.0,0.0,89,0.00,,---,0.00,VWS V14.01,2013-05-04 07:01:00,
2013-05-04 01:06:00,39.2,36.5,29.96,SE,141,3.6,3.6,90,0.00,,---,0.00,VWS V14.01,2013-05-04 07:06:00,
2013-05-04 01:11:00,39.2,36.5,29.96,ESE,105,0.0,0.0,90,0.00,,---,0.00,VWS V14.01,2013-05-04 07:11:00,
2013-05-04 01:16:00,39.0,36.9,29.96,ESE,123,0.0,0.0,92,0.00,,---,0.00,VWS V14.01,2013-05-04 07:16:00,
2013-05-04 01:21:00,38.8,36.7,29.96,ESE,123,0.0,0.0,92,0.00,,---,0.00,VWS V14.01,2013-05-04 07:21:00,
2013-05-04 01:26:00,38.8,37.0,29.96,ESE,111,0.0,0.0,93,0.00,,---,0.00,VWS V14.01,2013-05-04 07:26:00,
2013-05-04 01:31:00,38.8,37.0,29.96,ESE,113,0.0,0.0,93,0.00,,---,0.00,VWS V14.01,2013-05-04 07:31:00,
2013-05-04 01:36:00,38.8,37.0,29.96,WNW,303,0.0,0.0,93,0.00,,---,0.00,VWS V14.01,2013-05-04 07:36:00,
2013-05-04 01:41:00,38.8,37.0,29.96,NE,50,3.6,4.0,93,0.00,,---,0.00,VWS V14.01,2013-05-04 07:41:00,
2013-05-04 01:46:00,38.8,37.0,29.96,NNE,18,2.2,3.6,93,0.00,,---,0.00,VWS V14.01,2013-05-04 07:46:00,
2013-05-04 01:51:00,38.8,35.9,29.96,ESE,109,0.0,0.0,89,0.00,,---,0.00,VWS V14.01,2013-05-04 07:51:00,
2013-05-04 01:56:00,39.2,36.0,29.96,West,278,0.0,3.6,88,0.00,,---,0.00,VWS V14.01,2013-05-04 07:56:00,
2013-05-04 02:01:00,39.2,35.7,29.96,ENE,57,0.0,0.0,87,0.00,,---,0.00,VWS V14.01,2013-05-04 08:01:00,
2013-05-04 02:06:00,39.2,35.7,29.96,NE,39,3.6,3.6,87,0.00,,---,0.00,VWS V14.01,2013-05-04 08:06:00,
2013-05-04 02:11:00,39.4,35.5,29.96,ENE,73,0.0,3.6,86,0.00,,---,0.00,VWS V14.01,2013-05-04 08:11:00,
2013-05-04 02:16:00,39.4,35.5,29.96,North,357,0.0,0.0,86,0.00,,---,0.00,VWS V14.01,2013-05-04 08:16:00,
2013-05-04 02:21:00,39.4,35.2,29.96,NNE,31,0.0,0.0,85,0.00,,---,0.00,VWS V14.01,2013-05-04 08:21:00,
2013-05-04 02:26:00,39.4,35.2,29.96,NNE,28,0.0,4.5,85,0.00,,---,0.00,VWS V14.01,2013-05-04 08:26:00,
2013-05-04 02:31:00,39.4,35.2,29.96,NNE,16,7.2,7.2,85,0.00,,---,0.00,VWS V14.01,2013-05-04 08:31:00,
2013-05-04 02:36:00,39.4,35.0,29.96,NE,43,0.0,0.0,84,0.00,,---,0.00,VWS V14.01,2013-05-04 08:36:00,
2013-05-04 02:41:00,39.2,34.8,29.96,NE,43,0.0,0.0,84,0.00,,---,0.00,VWS V14.01,2013-05-04 08:41:00,
2013-05-04 02:46:00,39.4,34.7,29.96,NNE,19,4.5,4.5,83,0.00,,---,0.00,VWS V14.01,2013-05-04 08:46:00,
2013-05-04 02:51:00,39.4,34.7,29.93,NE,51,4.9,5.4,83,0.00,,---,0.00,VWS V14.01,2013-05-04 08:51:00,
2013-05-04 02:56:00,39.4,34.3,29.93,NNE,27,2.2,3.6,82,0.00,,---,0.00,VWS V14.01,2013-05-04 08:56:00,
2013-05-04 03:01:00,39.4,34.3,29.93,ENE,73,0.0,4.0,82,0.00,,---,0.00,VWS V14.01,2013-05-04 09:01:00,
2013-05-04 03:06:00,39.4,34.3,29.96,NE,50,0.0,0.0,82,0.00,,---,0.00,VWS V14.01,2013-05-04 09:06:00,
2013-05-04 03:11:00,39.4,34.7,29.96,SSE,149,5.8,5.8,83,0.00,,---,0.00,VWS V14.01,2013-05-04 09:11:00,
2013-05-04 03:16:00,39.4,34.7,29.96,ENE,74,2.7,3.6,83,0.00,,---,0.00,VWS V14.01,2013-05-04 09:16:00,
2013-05-04 03:21:00,39.4,35.0,29.96,ESE,110,0.0,0.0,84,0.00,,---,0.00,VWS V14.01,2013-05-04 09:21:00,
2013-05-04 03:26:00,39.2,35.1,29.96,SE,129,4.0,4.0,85,0.00,,---,0.00,VWS V14.01,2013-05-04 09:26:00,
2013-05-04 03:31:00,39.0,35.5,29.96,ESE,112,3.6,4.0,87,0.00,,---,0.00,VWS V14.01,2013-05-04 09:31:00,
2013-05-04 03:36:00,38.8,35.3,29.96,ESE,109,0.0,4.0,87,0.00,,---,0.00,VWS V14.01,2013-05-04 09:36:00,
2013-05-04 03:41:00,38.7,35.4,29.96,SE,125,2.2,4.0,88,0.00,,---,0.00,VWS V14.01,2013-05-04 09:41:00,
2013-05-04 03:46:00,38.5,35.2,29.96,SE,136,3.1,3.1,88,0.00,,---,0.00,VWS V14.01,2013-05-04 09:46:00,
2013-05-04 03:51:00,38.7,35.7,29.96,East,97,0.0,0.0,89,0.00,,---,0.00,VWS V14.01,2013-05-04 09:51:00,
2013-05-04 03:56:00,38.7,35.7,29.96,ESE,117,0.0,0.0,89,0.00,,---,0.00,VWS V14.01,2013-05-04 09:56:00,
2013-05-04 04:01:00,38.7,35.7,29.96,SE,141,0.0,0.0,89,0.00,,---,0.00,VWS V14.01,2013-05-04 10:01:00,
2013-05-04 04:06:00,38.7,35.4,29.96,SE,142,0.0,0.0,88,0.00,,---,0.00,VWS V14.01,2013-05-04 10:06:00,
2013-05-04 04:11:00,38.8,35.0,29.96,SE,143,2.2,2.7,86,0.00,,---,0.00,VWS V14.01,2013-05-04 10:11:00,
2013-05-04 04:16:00,39.2,33.9,29.96,ENE,64,0.0,3.6,81,0.00,,---,0.00,VWS V14.01,2013-05-04 10:16:00,
2013-05-04 04:21:00,39.4,34.0,29.96,ENE,58,0.0,0.0,81,0.00,,---,0.00,VWS V14.01,2013-05-04 10:21:00,
2013-05-04 04:26:00,39.6,34.2,29.96,NE,55,3.6,4.0,81,0.00,,---,0.00,VWS V14.01,2013-05-04 10:26:00,
2013-05-04 04:31:00,39.6,33.9,29.96,NE,45,3.6,4.9,80,0.00,,---,0.00,VWS V14.01,2013-05-04 10:31:00,
2013-05-04 04:36:00,39.6,33.3,29.96,NE,50,3.6,7.2,78,0.00,,---,0.00,VWS V14.01,2013-05-04 10:36:00,
2013-05-04 04:41:00,39.7,33.1,29.96,ENE,57,3.6,3.6,77,0.00,,---,0.00,VWS V14.01,2013-05-04 10:41:00,
2013-05-04 04:46:00,39.7,33.1,29.96,NE,38,0.0,0.0,77,0.00,,---,0.00,VWS V14.01,2013-05-04 10:46:00,
2013-05-04 04:51:00,39.7,33.1,29.96,NE,38,0.0,0.0,77,0.00,,---,0.00,VWS V14.01,2013-05-04 10:51:00,
2013-05-04 04:56:00,39.7,33.1,29.96,NNE,31,0.0,4.0,77,0.00,,---,0.00,VWS V14.01,2013-05-04 10:56:00,
2013-05-04 05:01:00,39.7,32.8,29.96,NE,46,0.0,4.9,76,0.00,,---,0.00,VWS V14.01,2013-05-04 11:01:00,
2013-05-04 05:06:00,39.9,33.0,29.96,NE,49,2.2,2.2,76,0.00,,---,0.00,VWS V14.01,2013-05-04 11:06:00,
2013-05-04 05:11:00,40.1,33.2,29.96,ENE,68,0.0,3.1,76,0.00,,---,0.00,VWS V14.01,2013-05-04 11:11:00,
2013-05-04 05:16:00,40.3,32.3,29.96,SE,138,0.0,0.0,73,0.00,,---,0.00,VWS V14.01,2013-05-04 11:16:00,
2013-05-04 05:21:00,40.3,32.3,29.93,ESE,117,0.0,0.0,73,0.00,,---,0.00,VWS V14.01,2013-05-04 11:21:00,
2013-05-04 05:26:00,40.1,32.2,29.93,ESE,120,0.0,0.0,73,0.00,,---,0.00,VWS V14.01,2013-05-04 11:26:00,
2013-05-04 05:31:00,39.9,32.3,29.93,SE,126,0.0,0.0,74,0.00,,---,0.00,VWS V14.01,2013-05-04 11:31:00,
2013-05-04 05:36:00,39.9,32.3,29.96,SE,126,0.0,0.0,74,0.00,,---,0.00,VWS V14.01,2013-05-04 11:36:00,
2013-05-04 05:41:00,39.9,32.0,29.96,NE,55,0.0,0.0,73,0.00,,---,0.00,VWS V14.01,2013-05-04 11:41:00,
2013-05-04 05:46:00,39.9,32.0,29.96,NE,34,4.0,4.0,73,0.00,,---,0.00,VWS V14.01,2013-05-04 11:46:00,
2013-05-04 05:51:00,40.1,31.8,29.93,NNE,29,6.3,6.3,72,0.00,,---,0.00,VWS V14.01,2013-05-04 11:51:00,
2013-05-04 05:56:00,40.1,31.8,29.93,North,1,5.4,6.7,72,0.00,,---,0.00,VWS V14.01,2013-05-04 11:56:00,
2013-05-04 06:01:00,40.1,31.8,29.93,NNE,31,3.6,4.9,72,0.00,,---,0.00,VWS V14.01,2013-05-04 12:01:00,
2013-05-04 06:06:00,40.1,31.8,29.93,NNE,25,3.6,4.0,72,0.00,,---,0.00,VWS V14.01,2013-05-04 12:06:00,
2013-05-04 06:11:00,40.1,31.8,29.93,NNW,337,0.0,0.0,72,0.00,,---,0.00,VWS V14.01,2013-05-04 12:11:00,
2013-05-04 06:16:00,40.1,32.2,29.93,NE,42,2.7,5.4,73,0.00,,---,0.00,VWS V14.01,2013-05-04 12:16:00,
2013-05-04 06:21:00,40.1,31.8,29.96,North,9,5.4,5.4,72,0.00,,---,0.00,VWS V14.01,2013-05-04 12:21:00,
2013-05-04 06:26:00,40.3,32.0,29.96,North,10,2.7,2.7,72,0.00,,---,0.00,VWS V14.01,2013-05-04 12:26:00,
2013-05-04 06:31:00,40.3,32.0,29.96,NNW,339,0.0,0.0,72,0.00,,---,0.00,VWS V14.01,2013-05-04 12:31:00,
2013-05-04 06:37:00,40.3,32.3,29.96,NNW,342,3.6,3.6,73,0.00,,---,0.00,VWS V14.01,2013-05-04 12:37:00,
2013-05-04 06:42:00,40.3,32.0,29.96,NNE,20,0.0,0.0,72,0.00,,---,0.00,VWS V14.01,2013-05-04 12:42:00,
2013-05-04 06:47:00,40.3,32.0,29.96,NNE,29,4.0,4.0,72,0.00,,---,0.00,VWS V14.01,2013-05-04 12:47:00,
2013-05-04 06:52:00,40.3,32.0,29.96,NE,40,0.0,0.0,72,0.00,,---,0.00,VWS V14.01,2013-05-04 12:52:00,
2013-05-04 06:57:00,40.3,32.0,29.96,NW,316,5.4,5.4,72,0.00,,---,0.00,VWS V14.01,2013-05-04 12:57:00,
2013-05-04 07:02:00,40.3,31.6,29.96,NW,315,0.0,4.0,71,0.00,,---,0.00,VWS V14.01,2013-05-04 13:02:00,
2013-05-04 07:03:00,40.5,31.8,29.96,North,353,2.7,3.1,71,0.00,,---,0.00,VWS V14.01,2013-05-04 13:03:00,
2013-05-04 07:08:00,40.5,31.8,29.96,North,353,5.4,5.4,71,0.00,,---,0.00,VWS V14.01,2013-05-04 13:08:00,
2013-05-04 07:13:00,40.5,32.2,29.96,North,1,0.0,0.0,72,0.00,,---,0.00,VWS V14.01,2013-05-04 13:13:00,
2013-05-04 07:18:00,40.5,32.2,29.96,NNW,336,0.0,6.3,72,0.00,,---,0.00,VWS V14.01,2013-05-04 13:18:00,
2013-05-04 07:23:00,40.5,31.8,29.96,North,4,2.2,3.6,71,0.00,,---,0.00,VWS V14.01,2013-05-04 13:23:00,
2013-05-04 07:28:00,40.6,32.0,29.96,NNW,340,0.0,3.1,71,0.00,,---,0.00,VWS V14.01,2013-05-04 13:28:00,
2013-05-04 07:33:00,40.6,32.3,29.96,NE,36,3.6,5.4,72,0.00,,---,0.00,VWS V14.01,2013-05-04 13:33:00,
2013-05-04 07:38:00,40.8,32.2,29.96,NNW,344,3.1,3.1,71,0.00,,---,0.00,VWS V14.01,2013-05-04 13:38:00,
2013-05-04 07:43:00,41.0,32.3,29.96,North,350,5.4,5.4,71,0.00,,---,0.00,VWS V14.01,2013-05-04 13:43:00,
2013-05-04 07:48:00,41.4,32.7,29.96,North,357,2.7,3.1,71,0.00,,---,0.00,VWS V14.01,2013-05-04 13:48:00,
2013-05-04 07:53:00,41.9,32.8,29.96,NNE,20,8.3,8.3,70,0.00,,---,0.00,VWS V14.01,2013-05-04 13:53:00,
2013-05-04 07:58:00,42.3,32.8,29.96,ENE,63,5.4,5.4,69,0.00,,---,0.00,VWS V14.01,2013-05-04 13:58:00,
2013-05-04 08:03:00,42.6,32.8,29.96,NW,306,3.1,3.1,68,0.00,,---,0.00,VWS V14.01,2013-05-04 14:03:00,
2013-05-04 08:08:00,42.8,32.2,29.96,North,357,2.7,2.7,66,0.00,,---,0.00,VWS V14.01,2013-05-04 14:08:00,
2013-05-04 08:13:00,42.6,32.1,29.96,NW,322,3.6,4.0,66,0.00,,---,0.00,VWS V14.01,2013-05-04 14:13:00,
2013-05-04 08:18:00,42.4,31.5,29.96,NNW,334,4.0,7.6,65,0.00,,---,0.00,VWS V14.01,2013-05-04 14:18:00,
2013-05-04 08:23:00,42.3,31.4,29.96,North,357,2.7,5.4,65,0.00,,---,0.00,VWS V14.01,2013-05-04 14:23:00,
2013-05-04 08:28:00,42.3,31.4,29.96,NE,43,3.1,3.1,65,0.00,,---,0.00,VWS V14.01,2013-05-04 14:28:00,
2013-05-04 08:33:00,42.1,31.6,29.96,North,357,6.3,6.3,66,0.00,,---,0.00,VWS V14.01,2013-05-04 14:33:00,
2013-05-04 08:38:00,42.1,31.6,29.96,North,9,2.2,5.8,66,0.00,,---,0.00,VWS V14.01,2013-05-04 14:38:00,
2013-05-04 08:43:00,42.1,31.9,29.96,NW,317,10.1,10.1,67,0.00,,---,0.00,VWS V14.01,2013-05-04 14:43:00,
2013-05-04 08:48:00,42.3,31.7,29.96,NNW,346,3.6,6.3,66,0.00,,---,0.00,VWS V14.01,2013-05-04 14:48:00,
2013-05-04 08:53:00,42.3,31.7,29.96,NNE,12,10.1,10.1,66,0.00,,---,0.00,VWS V14.01,2013-05-04 14:53:00,
2013-05-04 08:58:00,42.4,32.3,29.96,NNW,331,8.3,8.3,67,0.00,,---,0.00,VWS V14.01,2013-05-04 14:58:00,
2013-05-04 09:03:00,42.8,31.9,29.96,North,7,6.3,6.3,65,0.00,,---,0.00,VWS V14.01,2013-05-04 15:03:00,
2013-05-04 09:08:00,43.0,32.4,29.96,NE,41,8.1,8.1,66,0.00,,---,0.00,VWS V14.01,2013-05-04 15:08:00,
2013-05-04 09:13:00,43.0,32.0,29.96,North,4,5.8,8.3,65,0.00,,---,0.00,VWS V14.01,2013-05-04 15:13:00,
2013-05-04 09:18:00,43.0,31.6,29.96,North,10,10.5,10.5,64,0.00,,---,0.00,VWS V14.01,2013-05-04 15:18:00,
2013-05-04 09:23:00,43.0,32.0,29.96,NNE,27,7.6,7.6,65,0.00,,---,0.00,VWS V14.01,2013-05-04 15:23:00,
2013-05-04 09:28:00,43.0,32.0,29.96,NNW,348,5.8,5.8,65,0.00,,---,0.00,VWS V14.01,2013-05-04 15:28:00,
2013-05-04 09:33:00,43.2,31.8,29.96,North,4,3.6,12.3,64,0.00,,---,0.00,VWS V14.01,2013-05-04 15:33:00,
2013-05-04 09:38:00,43.3,32.4,29.96,NNW,339,5.8,6.7,65,0.00,,---,0.00,VWS V14.01,2013-05-04 15:38:00,
2013-05-04 09:43:00,43.5,31.4,29.96,NNE,21,6.3,6.3,62,0.00,,---,0.00,VWS V14.01,2013-05-04 15:43:00,
2013-05-04 09:48:00,43.7,32.0,29.96,NNW,333,5.4,5.4,63,0.00,,---,0.00,VWS V14.01,2013-05-04 15:48:00,
2013-05-04 09:53:00,43.7,32.0,29.96,NNE,19,5.8,5.8,63,0.00,,---,0.00,VWS V14.01,2013-05-04 15:53:00,
2013-05-04 09:58:00,43.5,31.4,29.96,North,1,7.2,7.2,62,0.00,,---,0.00,VWS V14.01,2013-05-04 15:58:00,
2013-05-04 10:03:00,43.2,31.4,29.96,WNW,296,5.8,5.8,63,0.00,,---,0.00,VWS V14.01,2013-05-04 16:03:00,
2013-05-04 10:08:00,43.0,31.6,29.99,NE,38,4.0,4.9,64,0.00,,---,0.00,VWS V14.01,2013-05-04 16:08:00,
2013-05-04 10:13:00,43.0,32.0,29.99,North,8,0.0,3.1,65,0.00,,---,0.00,VWS V14.01,2013-05-04 16:13:00,
2013-05-04 10:18:00,43.2,32.2,29.99,ENE,60,3.6,3.6,65,0.00,,---,0.00,VWS V14.01,2013-05-04 16:18:00,
2013-05-04 10:23:00,43.3,32.4,29.96,North,0,3.1,4.9,65,0.00,,---,0.00,VWS V14.01,2013-05-04 16:23:00,
2013-05-04 10:28:00,43.5,31.8,29.96,NNW,333,6.3,6.3,63,0.00,,---,0.00,VWS V14.01,2013-05-04 16:28:00,
2013-05-04 10:33:00,43.9,32.1,29.96,North,353,5.8,5.8,63,0.00,,---,0.00,VWS V14.01,2013-05-04 16:33:00,
2013-05-04 10:38:00,44.1,31.5,29.96,NNE,18,3.1,3.1,61,0.00,,---,0.00,VWS V14.01,2013-05-04 16:38:00,
2013-05-04 10:43:00,44.6,30.8,29.96,NNE,21,3.6,3.6,58,0.00,,---,0.00,VWS V14.01,2013-05-04 16:43:00,
2013-05-04 10:48:00,44.8,29.6,29.96,North,353,6.7,6.7,55,0.00,,---,0.00,VWS V14.01,2013-05-04 16:48:00,
2013-05-04 10:53:00,44.8,29.6,29.96,NE,42,8.7,8.7,55,0.00,,---,0.00,VWS V14.01,2013-05-04 16:53:00,
2013-05-04 10:58:00,44.8,29.6,29.96,NE,54,6.7,6.7,55,0.00,,---,0.00,VWS V14.01,2013-05-04 16:58:00,
2013-05-04 11:03:00,45.0,29.8,29.96,East,81,4.0,7.6,55,0.00,,---,0.00,VWS V14.01,2013-05-04 17:03:00,
2013-05-04 11:08:00,45.1,30.0,29.96,WNW,302,4.0,4.9,55,0.00,,---,0.00,VWS V14.01,2013-05-04 17:08:00,
2013-05-04 11:13:00,45.3,30.6,29.96,North,11,4.9,9.6,56,0.00,,---,0.00,VWS V14.01,2013-05-04 17:13:00,
2013-05-04 11:18:00,45.1,30.0,29.96,NE,35,4.9,4.9,55,0.00,,---,0.00,VWS V14.01,2013-05-04 17:18:00,
2013-05-04 11:23:00,45.0,30.2,29.96,ENE,67,8.7,9.2,56,0.00,,---,0.00,VWS V14.01,2013-05-04 17:23:00,
2013-05-04 11:28:00,45.0,29.8,29.96,NE,35,5.8,7.6,55,0.00,,---,0.00,VWS V14.01,2013-05-04 17:28:00,
2013-05-04 11:33:00,45.0,29.3,29.96,NE,36,3.1,8.1,54,0.00,,---,0.00,VWS V14.01,2013-05-04 17:33:00,
2013-05-04 11:38:00,44.8,28.7,29.96,NE,56,5.8,5.8,53,0.00,,---,0.00,VWS V14.01,2013-05-04 17:38:00,
2013-05-04 11:43:00,44.8,29.2,29.96,North,0,7.6,7.6,54,0.00,,---,0.00,VWS V14.01,2013-05-04 17:43:00,
2013-05-04 11:48:00,44.6,29.0,29.96,NNE,14,4.9,5.4,54,0.00,,---,0.00,VWS V14.01,2013-05-04 17:48:00,
2013-05-04 11:53:00,44.6,29.0,29.96,North,357,6.3,6.3,54,0.00,,---,0.00,VWS V14.01,2013-05-04 17:53:00,
2013-05-04 11:58:00,45.0,28.9,29.96,NNE,30,10.5,11.9,53,0.00,,---,0.00,VWS V14.01,2013-05-04 17:58:00,
2013-05-04 12:03:00,45.5,28.9,29.96,NNW,328,4.0,8.1,52,0.00,,---,0.00,VWS V14.01,2013-05-04 18:03:00,
2013-05-04 12:08:00,45.9,28.8,29.96,NNE,32,8.3,12.3,51,0.00,,---,0.00,VWS V14.01,2013-05-04 18:08:00,
2013-05-04 12:13:00,46.0,28.9,29.96,NNE,16,8.7,10.1,51,0.00,,---,0.00,VWS V14.01,2013-05-04 18:13:00,
2013-05-04 12:18:00,46.0,28.5,29.96,North,10,10.5,11.0,50,0.00,,---,0.00,VWS V14.01,2013-05-04 18:18:00,
2013-05-04 12:23:00,45.9,28.3,29.96,North,6,11.0,11.0,50,0.00,,---,0.00,VWS V14.01,2013-05-04 18:23:00,
2013-05-04 12:28:00,45.9,28.8,29.96,NNW,348,8.7,11.0,51,0.00,,---,0.00,VWS V14.01,2013-05-04 18:28:00,
2013-05-04 12:33:00,46.0,29.4,29.96,NNE,31,3.6,7.2,52,0.00,,---,0.00,VWS V14.01,2013-05-04 18:33:00,
2013-05-04 12:38:00,46.4,29.3,29.96,East,97,7.2,7.2,51,0.00,,---,0.00,VWS V14.01,2013-05-04 18:38:00,
2013-05-04 12:43:00,46.6,29.4,29.96,NNE,23,10.1,10.1,51,0.00,,---,0.00,VWS V14.01,2013-05-04 18:43:00,
2013-05-04 12:48:00,46.8,29.6,29.96,NNE,31,5.4,10.1,51,0.00,,---,0.00,VWS V14.01,2013-05-04 18:48:00,
2013-05-04 12:53:00,47.1,29.5,29.96,NE,42,11.9,11.9,50,0.00,,---,0.00,VWS V14.01,2013-05-04 18:53:00,
2013-05-04 12:58:00,47.3,30.1,29.96,NE,44,4.0,6.3,51,0.00,,---,0.00,VWS V14.01,2013-05-04 18:58:00,
2013-05-04 13:03:00,47.7,29.5,29.96,NNE,14,4.0,10.1,49,0.00,,---,0.00,VWS V14.01,2013-05-04 19:03:00,
2013-05-04 13:08:00,48.0,29.8,29.93,NE,49,4.9,8.1,49,0.00,,---,0.00,VWS V14.01,2013-05-04 19:08:00,
2013-05-04 13:13:00,48.6,29.8,29.93,NE,39,5.8,12.8,48,0.00,,---,0.00,VWS V14.01,2013-05-04 19:13:00,
2013-05-04 13:18:00,48.9,30.1,29.93,North,7,3.6,8.7,48,0.00,,---,0.00,VWS V14.01,2013-05-04 19:18:00,
2013-05-04 13:23:00,49.3,30.4,29.96,NNE,20,4.9,6.3,48,0.00,,---,0.00,VWS V14.01,2013-05-04 19:23:00,
2013-05-04 13:28:00,49.6,29.7,29.96,NNW,338,4.9,10.1,46,0.00,,---,0.00,VWS V14.01,2013-05-04 19:28:00,
2013-05-04 13:33:00,49.5,29.6,29.96,North,8,3.1,13.2,46,0.00,,---,0.00,VWS V14.01,2013-05-04 19:33:00,
2013-05-04 13:38:00,49.6,29.7,29.96,NE,52,5.4,5.4,46,0.00,,---,0.00,VWS V14.01,2013-05-04 19:38:00,
2013-05-04 13:43:00,50.0,30.0,29.96,NNE,12,5.8,9.6,46,0.00,,---,0.00,VWS V14.01,2013-05-04 19:43:00,
2013-05-04 13:48:00,50.5,29.5,29.96,WSW,254,8.7,8.7,44,0.00,,---,0.00,VWS V14.01,2013-05-04 19:48:00,
2013-05-04 13:53:00,50.2,29.1,29.96,NNE,20,7.6,9.6,44,0.00,,---,0.00,VWS V14.01,2013-05-04 19:53:00,
2013-05-04 13:58:00,49.8,29.4,29.96,NNE,12,3.6,12.8,45,0.00,,---,0.00,VWS V14.01,2013-05-04 19:58:00,
2013-05-04 14:03:00,49.5,29.0,29.96,North,7,8.7,8.7,45,0.00,,---,0.00,VWS V14.01,2013-05-04 20:03:00,
2013-05-04 14:08:00,49.6,30.2,29.93,NNE,30,4.0,12.8,47,0.00,,---,0.00,VWS V14.01,2013-05-04 20:08:00,
2013-05-04 14:13:00,49.6,29.2,29.93,ENE,63,10.1,10.5,45,0.00,,---,0.00,VWS V14.01,2013-05-04 20:13:00,
2013-05-04 14:18:00,50.0,30.0,29.93,North,0,5.8,9.6,46,0.00,,---,0.00,VWS V14.01,2013-05-04 20:18:00,
2013-05-04 14:23:00,51.6,30.4,29.93,ENE,58,8.3,10.1,44,0.00,,---,0.00,VWS V14.01,2013-05-04 20:23:00,
2013-05-04 14:28:00,52.9,30.4,29.93,NNE,18,4.9,8.3,42,0.00,,---,0.00,VWS V14.01,2013-05-04 20:28:00,
2013-05-04 14:33:00,53.4,29.7,29.93,ENE,57,5.8,11.0,40,0.00,,---,0.00,VWS V14.01,2013-05-04 20:33:00,
2013-05-04 14:38:00,53.1,29.4,29.93,NNE,26,2.7,3.6,40,0.00,,---,0.00,VWS V14.01,2013-05-04 20:38:00,
2013-05-04 14:43:00,53.1,29.4,29.93,North,4,5.8,8.7,40,0.00,,---,0.00,VWS V14.01,2013-05-04 20:43:00,
2013-05-04 14:48:00,52.5,29.5,29.93,NNE,16,11.4,11.4,41,0.00,,---,0.00,VWS V14.01,2013-05-04 20:48:00,
2013-05-04 14:53:00,52.5,29.5,29.93,North,349,7.2,8.7,41,0.00,,---,0.00,VWS V14.01,2013-05-04 20:53:00,
2013-05-04 14:58:00,53.1,30.0,29.93,NNE,31,5.4,8.3,41,0.00,,---,0.00,VWS V14.01,2013-05-04 20:58:00,
2013-05-04 15:03:00,53.4,29.7,29.93,NNE,21,3.6,5.8,40,0.00,,---,0.00,VWS V14.01,2013-05-04 21:03:00,
2013-05-04 15:08:00,53.4,29.1,29.91,North,6,3.1,3.6,39,0.00,,---,0.00,VWS V14.01,2013-05-04 21:08:00,
2013-05-04 15:13:00,54.3,29.9,29.91,NNE,15,10.5,10.5,39,0.00,,---,0.00,VWS V14.01,2013-05-04 21:13:00,
2013-05-04 15:18:00,53.6,28.6,29.91,NNE,32,8.7,10.5,38,0.00,,---,0.00,VWS V14.01,2013-05-04 21:18:00,
2013-05-04 15:23:00,52.9,28.0,29.93,NNE,25,8.1,8.1,38,0.00,,---,0.00,VWS V14.01,2013-05-04 21:23:00,
2013-05-04 15:28:00,52.9,28.6,29.93,North,10,6.3,12.3,39,0.00,,---,0.00,VWS V14.01,2013-05-04 21:28:00,
2013-05-04 15:33:00,52.5,27.7,29.93,North,4,10.5,12.8,38,0.00,,---,0.00,VWS V14.01,2013-05-04 21:33:00,
2013-05-04 15:38:00,52.0,27.8,29.93,NNE,25,3.1,10.1,39,0.00,,---,0.00,VWS V14.01,2013-05-04 21:38:00,
2013-05-04 15:43:00,51.6,27.5,29.93,NE,38,9.6,11.9,39,0.00,,---,0.00,VWS V14.01,2013-05-04 21:43:00,
2013-05-04 15:48:00,51.4,27.9,29.93,NE,43,5.4,10.5,40,0.00,,---,0.00,VWS V14.01,2013-05-04 21:48:00,
2013-05-04 15:53:00,51.3,28.4,29.93,North,7,7.6,7.6,41,0.00,,---,0.00,VWS V14.01,2013-05-04 21:53:00,
2013-05-04 15:58:00,51.1,28.2,29.93,NNE,27,8.3,12.3,41,0.00,,---,0.00,VWS V14.01,2013-05-04 21:58:00,
2013-05-04 16:03:00,50.5,28.3,29.93,NW,320,6.3,7.6,42,0.00,,---,0.00,VWS V14.01,2013-05-04 22:03:00,
2013-05-04 16:08:00,50.2,28.6,29.93,North,350,8.1,12.3,43,0.00,,---,0.00,VWS V14.01,2013-05-04 22:08:00,
2013-05-04 16:12:00,50.2,28.6,29.93,North,0,5.8,7.2,43,0.00,,---,0.00,VWS V14.01,2013-05-04 22:12:00,
2013-05-04 16:17:00,50.4,28.7,29.93,North,2,5.8,10.5,43,0.00,,---,0.00,VWS V14.01,2013-05-04 22:17:00,
2013-05-04 16:22:00,50.4,29.3,29.93,NNW,337,4.0,5.8,44,0.00,,---,0.00,VWS V14.01,2013-05-04 22:22:00,
2013-05-04 16:27:00,50.7,29.1,29.93,NW,318,5.4,5.4,43,0.00,,---,0.00,VWS V14.01,2013-05-04 22:27:00,
2013-05-04 16:32:00,50.9,28.6,29.93,North,353,8.7,8.7,42,0.00,,---,0.00,VWS V14.01,2013-05-04 22:32:00,
2013-05-04 16:37:00,50.9,28.6,29.93,North,2,9.2,9.2,42,0.00,,---,0.00,VWS V14.01,2013-05-04 22:37:00,
2013-05-04 16:42:00,50.9,28.1,29.93,NW,316,5.4,8.7,41,0.00,,---,0.00,VWS V14.01,2013-05-04 22:42:00,
2013-05-04 16:47:00,50.5,27.7,29.93,NNW,346,2.7,8.3,41,0.00,,---,0.00,VWS V14.01,2013-05-04 22:47:00,
2013-05-04 16:52:00,50.9,28.1,29.91,North,350,2.7,5.4,41,0.00,,---,0.00,VWS V14.01,2013-05-04 22:52:00,
2013-05-04 16:57:00,51.1,28.2,29.91,NNE,28,4.0,5.8,41,0.00,,---,0.00,VWS V14.01,2013-05-04 22:57:00,
2013-05-04 17:02:00,51.1,28.8,29.91,NNE,26,0.0,0.0,42,0.00,,---,0.00,VWS V14.01,2013-05-04 23:02:00,
2013-05-04 17:07:00,51.3,27.8,29.91,NE,47,10.5,10.5,40,0.00,,---,0.00,VWS V14.01,2013-05-04 23:07:00,
2013-05-04 17:12:00,51.4,28.5,29.91,North,11,3.1,3.1,41,0.00,,---,0.00,VWS V14.01,2013-05-04 23:12:00,
2013-05-04 17:17:00,51.4,27.9,29.91,NE,36,10.5,10.5,40,0.00,,---,0.00,VWS V14.01,2013-05-04 23:17:00,
2013-05-04 17:22:00,51.4,27.9,29.91,North,4,3.6,4.9,40,0.00,,---,0.00,VWS V14.01,2013-05-04 23:22:00,
2013-05-04 17:27:00,51.4,27.9,29.91,NNW,338,6.7,6.7,40,0.00,,---,0.00,VWS V14.01,2013-05-04 23:27:00,
2013-05-04 17:32:00,51.1,28.2,29.91,NNE,23,8.3,8.7,41,0.00,,---,0.00,VWS V14.01,2013-05-04 23:32:00,
2013-05-04 17:37:00,50.9,28.1,29.91,NNW,338,8.7,8.7,41,0.00,,---,0.00,VWS V14.01,2013-05-04 23:37:00,
2013-05-04 17:42:00,50.9,27.5,29.91,North,353,4.0,10.1,40,0.00,,---,0.00,VWS V14.01,2013-05-04 23:42:00,
2013-05-04 17:47:00,52.0,28.4,29.91,North,353,7.2,7.2,40,0.00,,---,0.00,VWS V14.01,2013-05-04 23:47:00,
2013-05-04 17:52:00,52.2,28.0,29.91,NNE,27,10.1,10.1,39,0.00,,---,0.00,VWS V14.01,2013-05-04 23:52:00,
2013-05-04 17:57:00,52.2,28.0,29.91,NNE,20,0.0,7.2,39,0.00,,---,0.00,VWS V14.01,2013-05-04 23:57:00,
2013-05-04 18:02:00,52.0,27.8,29.91,NNW,331,2.7,3.1,39,0.00,,---,0.00,VWS V14.01,2013-05-05 00:02:00,
2013-05-04 18:07:00,51.6,28.1,29.91,NNW,333,7.6,7.6,40,0.00,,---,0.00,VWS V14.01,2013-05-05 00:07:00,
2013-05-04 18:12:00,51.3,27.8,29.91,NNE,17,5.8,10.5,40,0.00,,---,0.00,VWS V14.01,2013-05-05 00:12:00,
2013-05-04 18:17:00,50.9,27.5,29.91,ENE,60,3.1,6.3,40,0.00,,---,0.00,VWS V14.01,2013-05-05 00:17:00,
2013-05-04 18:22:00,50.7,27.3,29.91,West,268,4.9,8.1,40,0.00,,---,0.00,VWS V14.01,2013-05-05 00:22:00,
2013-05-04 18:27:00,50.4,27.0,29.91,North,357,2.7,2.7,40,0.00,,---,0.00,VWS V14.01,2013-05-05 00:27:00,
2013-05-04 18:32:00,50.4,27.6,29.91,North,353,6.7,8.7,41,0.00,,---,0.00,VWS V14.01,2013-05-05 00:32:00,
2013-05-04 18:37:00,50.2,27.4,29.91,NNW,344,2.7,5.8,41,0.00,,---,0.00,VWS V14.01,2013-05-05 00:37:00,
2013-05-04 18:42:00,50.0,27.8,29.91,North,353,5.8,5.8,42,0.00,,---,0.00,VWS V14.01,2013-05-05 00:42:00,
2013-05-04 18:47:00,49.8,28.2,29.91,North,357,4.0,6.3,43,0.00,,---,0.00,VWS V14.01,2013-05-05 00:47:00,
2013-05-04 18:52:00,49.5,28.5,29.91,North,11,3.1,3.1,44,0.00,,---,0.00,VWS V14.01,2013-05-05 00:52:00,
2013-05-04 18:57:00,49.5,29.6,29.91,NNE,14,5.8,5.8,46,0.00,,---,0.00,VWS V14.01,2013-05-05 00:57:00,
2013-05-04 19:02:00,49.5,29.0,29.91,North,353,5.8,5.8,45,0.00,,---,0.00,VWS V14.01,2013-05-05 01:02:00,
2013-05-04 19:07:00,49.3,29.4,29.88,WNW,290,0.0,4.0,46,0.00,,---,0.00,VWS V14.01,2013-05-05 01:07:00,
2013-05-04 19:12:00,49.1,29.8,29.88,NNW,331,8.3,8.3,47,0.00,,---,0.00,VWS V14.01,2013-05-05 01:12:00,
2013-05-04 19:17:00,48.7,29.9,29.88,NW,321,4.9,8.1,48,0.00,,---,0.00,VWS V14.01,2013-05-05 01:17:00,
2013-05-04 19:22:00,48.6,30.3,29.91,NNE,16,2.7,3.1,49,0.00,,---,0.00,VWS V14.01,2013-05-05 01:22:00,
2013-05-04 19:27:00,48.0,31.2,29.91,NNE,25,8.3,8.3,52,0.00,,---,0.00,VWS V14.01,2013-05-05 01:27:00,
2013-05-04 19:32:00,47.5,31.7,29.91,North,353,2.2,2.7,54,0.00,,---,0.00,VWS V14.01,2013-05-05 01:32:00,
2013-05-04 19:37:00,47.3,32.4,29.91,NNE,12,6.3,6.3,56,0.00,,---,0.00,VWS V14.01,2013-05-05 01:37:00,
2013-05-04 19:42:00,47.1,32.2,29.91,NE,45,2.7,6.3,56,0.00,,---,0.00,VWS V14.01,2013-05-05 01:42:00,
2013-05-04 19:47:00,47.1,31.8,29.91,NNE,28,8.3,8.3,55,0.00,,---,0.00,VWS V14.01,2013-05-05 01:47:00,
2013-05-04 19:52:00,47.3,32.0,29.91,NNE,12,5.4,5.4,55,0.00,,---,0.00,VWS V14.01,2013-05-05 01:52:00,
2013-05-04 19:57:00,47.3,31.5,29.91,NNE,31,3.6,4.0,54,0.00,,---,0.00,VWS V14.01,2013-05-05 01:57:00,
2013-05-04 20:02:00,47.3,32.0,29.91,NNW,346,5.8,5.8,55,0.00,,---,0.00,VWS V14.01,2013-05-05 02:02:00,
2013-05-04 20:07:00,47.1,32.2,29.91,NE,47,3.1,5.8,56,0.00,,---,0.00,VWS V14.01,2013-05-05 02:07:00,
2013-05-04 20:12:00,46.9,32.5,29.91,NNE,27,3.6,3.6,57,0.00,,---,0.00,VWS V14.01,2013-05-05 02:12:00,
2013-05-04 20:17:00,46.8,32.3,29.91,NNE,17,0.0,0.0,57,0.00,,---,0.00,VWS V14.01,2013-05-05 02:17:00,
2013-05-04 20:22:00,46.8,32.3,29.91,NE,43,0.0,0.0,57,0.00,,---,0.00,VWS V14.01,2013-05-05 02:22:00,
2013-05-04 20:27:00,46.8,31.9,29.91,NE,37,7.6,7.6,56,0.00,,---,0.00,VWS V14.01,2013-05-05 02:27:00,
2013-05-04 20:32:00,46.8,31.5,29.91,NE,54,2.7,4.0,55,0.00,,---,0.00,VWS V14.01,2013-05-05 02:32:00,
2013-05-04 20:37:00,46.8,31.0,29.91,NE,51,2.7,2.7,54,0.00,,---,0.00,VWS V14.01,2013-05-05 02:37:00,
2013-05-04 20:42:00,46.8,31.0,29.91,NNE,32,5.8,5.8,54,0.00,,---,0.00,VWS V14.01,2013-05-05 02:42:00,
2013-05-04 20:47:00,46.8,31.0,29.91,NNE,12,3.1,4.0,54,0.00,,---,0.00,VWS V14.01,2013-05-05 02:47:00,
2013-05-04 20:52:00,46.8,30.5,29.91,NNE,30,7.6,7.6,53,0.00,,---,0.00,VWS V14.01,2013-05-05 02:52:00,
2013-05-04 20:57:00,46.8,30.5,29.91,NNE,32,4.0,4.0,53,0.00,,---,0.00,VWS V14.01,2013-05-05 02:57:00,
2013-05-04 21:02:00,46.6,30.8,29.91,NNE,18,0.0,3.1,54,0.00,,---,0.00,VWS V14.01,2013-05-05 03:02:00,
2013-05-04 21:07:00,46.6,31.7,29.91,NNE,25,0.0,2.2,56,0.00,,---,0.00,VWS V14.01,2013-05-05 03:07:00,
2013-05-04 21:12:00,46.2,32.7,29.91,NNE,22,0.0,0.0,59,0.00,,---,0.00,VWS V14.01,2013-05-05 03:12:00,
2013-05-04 21:17:00,46.0,33.4,29.91,North,353,0.0,0.0,61,0.00,,---,0.00,VWS V14.01,2013-05-05 03:17:00,
2013-05-04 21:22:00,45.9,33.6,29.91,North,3,6.3,6.3,62,0.00,,---,0.00,VWS V14.01,2013-05-05 03:22:00,
2013-05-04 21:27:00,45.5,33.2,29.91,North,357,0.0,0.0,62,0.00,,---,0.00,VWS V14.01,2013-05-05 03:27:00,
2013-05-04 21:32:00,45.3,33.1,29.91,North,357,0.0,0.0,62,0.00,,---,0.00,VWS V14.01,2013-05-05 03:32:00,
2013-05-04 21:37:00,45.1,32.9,29.91,North,7,0.0,0.0,62,0.00,,---,0.00,VWS V14.01,2013-05-05 03:37:00,
2013-05-04 21:42:00,45.1,32.9,29.91,North,1,3.1,3.1,62,0.00,,---,0.00,VWS V14.01,2013-05-05 03:42:00,
2013-05-04 21:47:00,45.1,33.3,29.91,North,357,0.0,0.0,63,0.00,,---,0.00,VWS V14.01,2013-05-05 03:47:00,
2013-05-04 21:52:00,45.0,32.7,29.91,North,353,3.1,3.1,62,0.00,,---,0.00,VWS V14.01,2013-05-05 03:52:00,
2013-05-04 21:57:00,45.1,33.3,29.91,NE,41,0.0,2.2,63,0.00,,---,0.00,VWS V14.01,2013-05-05 03:57:00,
2013-05-04 22:01:00,45.1,33.3,29.91,North,2,0.0,2.2,63,0.00,,---,0.00,VWS V14.01,2013-05-05 04:01:00,
2013-05-04 22:06:00,45.1,33.3,29.93,NNE,29,2.2,2.2,63,0.00,,---,0.00,VWS V14.01,2013-05-05 04:06:00,
2013-05-04 22:11:00,45.0,32.7,29.93,NNE,27,3.1,8.1,62,0.00,,---,0.00,VWS V14.01,2013-05-05 04:11:00,
2013-05-04 22:16:00,45.1,32.9,29.93,NE,36,0.0,3.6,62,0.00,,---,0.00,VWS V14.01,2013-05-05 04:16:00,
2013-05-04 22:21:00,45.0,32.3,29.91,NNE,18,3.1,5.8,61,0.00,,---,0.00,VWS V14.01,2013-05-05 04:21:00,
2013-05-04 22:26:00,45.0,32.7,29.91,North,357,3.6,3.6,62,0.00,,---,0.00,VWS V14.01,2013-05-05 04:26:00,
2013-05-04 22:31:00,45.0,32.7,29.91,North,353,3.6,6.3,62,0.00,,---,0.00,VWS V14.01,2013-05-05 04:31:00,
2013-05-04 22:36:00,45.0,32.7,29.91,North,5,3.1,4.0,62,0.00,,---,0.00,VWS V14.01,2013-05-05 04:36:00,
2013-05-04 22:41:00,44.8,32.6,29.91,NE,40,6.3,6.3,62,0.00,,---,0.00,VWS V14.01,2013-05-05 04:41:00,
2013-05-04 22:46:00,44.8,33.0,29.91,NE,34,3.1,3.1,63,0.00,,---,0.00,VWS V14.01,2013-05-05 04:46:00,
2013-05-04 22:51:00,44.8,33.0,29.91,NNE,28,0.0,0.0,63,0.00,,---,0.00,VWS V14.01,2013-05-05 04:51:00,
2013-05-04 22:56:00,44.6,32.8,29.91,NNE,33,3.1,4.0,63,0.00,,---,0.00,VWS V14.01,2013-05-05 04:56:00,
2013-05-04 23:01:00,44.6,33.2,29.91,NE,46,3.6,5.4,64,0.00,,---,0.00,VWS V14.01,2013-05-05 05:01:00,
2013-05-04 23:06:00,44.6,33.2,29.91,NNE,16,2.7,4.9,64,0.00,,---,0.00,VWS V14.01,2013-05-05 05:06:00,
2013-05-04 23:11:00,44.4,33.4,29.91,NNE,32,0.0,0.0,65,0.00,,---,0.00,VWS V14.01,2013-05-05 05:11:00,
2013-05-04 23:16:00,44.4,33.4,29.91,NE,40,0.0,0.0,65,0.00,,---,0.00,VWS V14.01,2013-05-05 05:16:00,
2013-05-04 23:21:00,44.4,33.4,29.91,NE,45,0.0,0.0,65,0.00,,---,0.00,VWS V14.01,2013-05-05 05:21:00,
2013-05-04 23:26:00,44.2,33.2,29.91,NE,45,0.0,0.0,65,0.00,,---,0.00,VWS V14.01,2013-05-05 05:26:00,
2013-05-04 23:31:00,44.2,33.6,29.91,NE,45,0.0,0.0,66,0.00,,---,0.00,VWS V14.01,2013-05-05 05:31:00,
2013-05-04 23:36:00,44.1,33.4,29.91,NE,45,0.0,0.0,66,0.00,,---,0.00,VWS V14.01,2013-05-05 05:36:00,
2013-05-04 23:41:00,44.1,33.8,29.91,NE,45,0.0,0.0,67,0.00,,---,0.00,VWS V14.01,2013-05-05 05:41:00,
2013-05-04 23:46:00,44.1,33.8,29.91,NE,45,0.0,0.0,67,0.00,,---,0.00,VWS V14.01,2013-05-05 05:46:00,
2013-05-04 23:51:00,43.9,34.0,29.91,NE,45,0.0,0.0,68,0.00,,---,0.00,VWS V14.01,2013-05-05 05:51:00,
2013-05-04 23:56:00,43.7,33.5,29.91,ESE,116,0.0,0.0,67,0.00,,---,0.00,VWS V14.01,2013-05-05 05:56:00,